Weather History for KOJC - June, 2013

Change the Weather History Date:

Monday, June 17, 2013

  Actual Average Record
Temperature  
Mean Temperature 72 °F 74 °F  
Max Temperature 79 °F 83 °F 97 °F (1953)
Min Temperature 65 °F 64 °F 52 °F (1999)
Degree Days  
Heating Degree Days 0 0  
Month to date heating degree days 14 6  
Since 1 June heating degree days 14 6  
Since 1 July heating degree days 5099 4932  
Cooling Degree Days 7 9  
Month to date cooling degree days 101 123  
Year to date cooling degree days 202 227  
Since 1 June cooling degree days 101 123  
Growing Degree Days 22 (Base 50)    
Moisture  
Dew Point 66 °F    
Average Humidity 76    
Maximum Humidity 93    
Minimum Humidity 58    
Precipitation  
Precipitation 0.01 in 0.19 in 0.44 in (1967)
Month to date precipitation 3.62 3.59  
Year to date precipitation 21.55 18.33  
Sea Level Pressure  
Sea Level Pressure 29.95 in    
Wind  
Wind Speed 3 mph (SSE)    
Max Wind Speed 16 mph    
Max Gust Speed 23 mph    
Visibility 10 miles    
Events Rain , Thunderstorm    
T = Trace of Precipitation, MM = Missing Value Source: NWS Daily Summary

Daily Weather History Graph

Daily Weather History Graph

Search for Another Location

Airport or City:

Trip Planner

Search our weather history database for the weather conditions in past years. The results will help you decide how hot, cold, wet, or windy it might be!

Date:

Astronomy

Jun. 17, 2013 Rise Set
Actual Time 5:53 AM CDT 8:46 PM CDT
Civil Twilight 5:21 AM CDT 9:18 PM CDT
Nautical Twilight 4:40 AM CDT 9:59 PM CDT
Astronomical Twilight 3:54 AM CDT 10:45 PM CDT
Moon 2:29 PM CDT (6/17) 1:26 AM CDT (6/17)
Length of Visible Light 15h 57m
Length of Day
14h 53m
First Quarter, 60% of the Moon is Illuminated
Jun 17
First Quarter
Jun 23
Full
Jun 29
Last Quarter
Jul 8
New
Jul 15
First Quarter

Hourly Weather History & Observations

Time (CDT) Temp. Dew Point Humidity Pressure Visibility Wind Dir Wind Speed Gust Speed Precip Events Conditions
12:53 AM 72.0 °F 69.1 °F 91% 29.93 in 8.0 mi Calm Calm - N/A   Mostly Cloudy
1:53 AM 72.0 °F 69.1 °F 91% 29.91 in 8.0 mi East 5.8 mph - N/A   Mostly Cloudy
2:53 AM 72.0 °F 69.1 °F 91% 29.88 in 7.0 mi ESE 4.6 mph - N/A   Partly Cloudy
3:50 AM 71.6 °F 69.8 °F 94% 29.92 in 7.0 mi ESE 6.9 mph - N/A   Mostly Cloudy
3:53 AM 72.0 °F 70.0 °F 93% 29.88 in 7.0 mi ESE 8.1 mph - N/A   Mostly Cloudy
4:41 AM 71.6 °F 68.0 °F 88% 29.94 in 10.0 mi SE 13.8 mph - N/A   Overcast
4:53 AM 71.1 °F 66.9 °F 87% 29.91 in 10.0 mi SSE 13.8 mph 20.7 mph N/A   Overcast
5:10 AM 69.8 °F 66.2 °F 88% 29.93 in 10.0 mi SSE 9.2 mph - N/A   Mostly Cloudy
5:24 AM 71.6 °F 66.2 °F 83% 29.93 in 10.0 mi Variable 5.8 mph - N/A Thunderstorm Mostly Cloudy
5:46 AM 68.0 °F 64.4 °F 88% 29.92 in 10.0 mi SSE 13.8 mph 21.9 mph N/A   Partly Cloudy
5:53 AM 68.0 °F 63.0 °F 84% 29.89 in 10.0 mi South 8.1 mph 19.6 mph N/A   Clear
6:53 AM 69.1 °F 61.0 °F 75% 29.90 in 10.0 mi Calm Calm - N/A   Partly Cloudy
7:53 AM 70.0 °F 63.0 °F 78% 29.92 in 10.0 mi NNW 4.6 mph - N/A   Clear
8:53 AM 70.0 °F 64.9 °F 84% 29.95 in 10.0 mi Calm Calm - N/A   Mostly Cloudy
9:53 AM 71.1 °F 66.0 °F 84% 29.96 in 10.0 mi SSE 3.5 mph - N/A   Clear
10:19 AM 69.8 °F 66.2 °F 88% 30.00 in 10.0 mi SSW 3.5 mph - N/A   Mostly Cloudy
10:53 AM 72.0 °F 66.0 °F 81% 29.98 in 10.0 mi Calm Calm - N/A   Overcast
11:53 AM 73.9 °F 66.0 °F 76% 29.98 in 10.0 mi Calm Calm - N/A   Mostly Cloudy
12:53 PM 73.9 °F 64.0 °F 71% 29.99 in 10.0 mi West 4.6 mph - N/A   Mostly Cloudy
1:45 PM 73.4 °F 64.4 °F 73% 30.01 in 10.0 mi Calm Calm - N/A Thunderstorm Overcast
1:53 PM 73.0 °F 64.0 °F 73% 29.97 in 10.0 mi SW 4.6 mph - 0.00 in Rain , Thunderstorm Light Rain
2:01 PM 73.4 °F 64.4 °F 73% 30.00 in 10.0 mi SW 3.5 mph - 0.00 in Rain Light Rain
2:31 PM 73.4 °F 66.2 °F 78% 30.00 in 10.0 mi Calm Calm - 0.00 in Rain Light Rain
2:53 PM 75.0 °F 66.0 °F 73% 29.96 in 10.0 mi SW 4.6 mph - 0.00 in Thunderstorm Mostly Cloudy
2:56 PM 75.2 °F 66.2 °F 73% 29.98 in 10.0 mi Calm Calm - N/A   Mostly Cloudy
3:04 PM 75.2 °F 66.2 °F 73% 29.98 in 10.0 mi SSW 3.5 mph - N/A   Mostly Cloudy
3:51 PM 77.0 °F 69.8 °F 78% 29.98 in 10.0 mi Calm Calm - N/A Thunderstorm Scattered Clouds
3:53 PM 77.0 °F 69.1 °F 76% 29.94 in 10.0 mi Calm Calm - N/A Thunderstorm Scattered Clouds
4:11 PM 78.8 °F 69.8 °F 74% 29.98 in 10.0 mi Calm Calm - N/A   Scattered Clouds
4:45 PM 77.0 °F 68.0 °F 74% 29.98 in 10.0 mi NE 15.0 mph 23.0 mph 0.01 in Thunderstorm Overcast
4:53 PM 75.0 °F 66.9 °F 76% 29.96 in 10.0 mi NE 9.2 mph 23.0 mph 0.01 in Thunderstorm Overcast
5:41 PM 73.4 °F 64.4 °F 73% 29.94 in 10.0 mi Calm Calm - 0.00 in   Mostly Cloudy
5:53 PM 73.9 °F 64.0 °F 71% 29.92 in 10.0 mi Calm Calm - 0.00 in   Scattered Clouds
6:53 PM 78.1 °F 63.0 °F 60% 29.91 in 10.0 mi Calm Calm - N/A   Clear
7:53 PM 77.0 °F 62.1 °F 60% 29.91 in 10.0 mi North 3.5 mph - N/A   Clear
8:53 PM 70.0 °F 64.0 °F 81% 29.93 in 10.0 mi Calm Calm - N/A   Clear
9:53 PM 69.1 °F 64.9 °F 87% 29.95 in 10.0 mi Calm Calm - N/A   Clear
10:53 PM 66.9 °F 64.0 °F 90% 29.96 in 10.0 mi Calm Calm - N/A   Clear
11:53 PM 66.9 °F 64.0 °F 90% 29.96 in 10.0 mi Calm Calm - N/A   Clear